Showing default

TOMORROW-S10, 67398

Orbit data source: Space-Track

TOMORROW-S10, 67398 is a payload satellite owned by Tomorrow.io (US) in SSO that was launched on Sun, 11 Jan 2026 UTC via an FALCON 9 launch vehicle from the Air Force Western Test Range (AFWTR). Payload-class satellites include a variety of spacecraft equipped with specific instruments for various scientific and technological missions. These include communications satellites like Starlink; space stations such as the ISS; scientific satellites like the Hubble; Earth observation satellites from companies like Planet Labs, Umbra, and HawkEye 360; GPS; miniature CubeSats for education and research; and military/defense satellites.

Loading next visibility...
Identifier
67398, 2026-004AM
Orbit
SSO
Country
Flag of USUS
Related business
Manufacturer
Blue Canyon
Mission
Operational spacecraft
Bus & Motor
CUBESAT 6U, Unknown motor
Mass
12 kg wet, 12 kg dry
Launch date (UTC)
2026-01-11 (3 months ago)
Launch vehicle
FALCON 9
Launch site
Air Force Western Test Range (AFWTR)
Object type
Payload
Rocket body
Debris
Shape & HBR
Unknown shape, 1.1 m
Radar Cross Section
RCS unknown

Expand to show TLE details & history
Last TLE update: 14 hours ago

TLE from 14 hours ago
0 TOMORROW-S10
1 67398U 26004AM  26094.99444339  .00005775  00000-0  28248-3 0  9992
2 67398  97.4587  95.1629 0005221 231.9329 128.1435 15.18581988 12658
Epoch: 2026-04-04T23:51Z
TLE epoch observation values (Epoch: 2026-04-04T23:51:59.908Z)
Latitude
-0.00001°
Longitude
-96.14295°
Altitude
515.435 km
Speed
7.605 km/s
True Right ascension
06h 20m 39s
True Declination
0° 00' 00"
Sunlit
Object was in daylight at epoch
Visualization orbit readout
Latitude
Unknown
Longitude
Unknown
Altitude
Unknown
Speed
Unknown
Apparent Right ascension
Unknown
Apparent Declination
Unknown
Sunlit
N/A
Visualization observer readout
Local Sidereal Time
19:28:32
Azimuth
Unknown
Elevation
Unknown
Doppler factor
Unknown
Orbital elements
Apogee altitude
510.69 km
Perigee altitude
503.501 km
Semi-major axis
6,885.232 km
Eccentricity
0.00052
Inclination
97.4587°
RAAN
95.1629°
Arg. of periapsis
231.9329°
True anomaly
128.19053°
Mean anomaly
128.1435°
Eccentric anomaly
128.16702°
Mean motion
3.79896 °/min
Orbital period
94.76 mins
BSTAR
0.00028248
Loading maneuver chart data...
Computing Atmospheric mass density...
Loading historical data...
Loading historical data...
Loading historical data...
Loading historical data...
Loading historical data...
Loading historical data...
Loading historical data...

Documentation

Showing up to 5 results
|